カタログに戻る

CZ-6A DEB

運用中PO
NORAD 60762·DEBRIS·🇨🇳 China

打ち上げ Aug 6, 2024 から Taiyuan Satellite Launch Center

Loading…

次のパス (今後24時間)

TLE

最新Source: Space-Track

元期: Sep 14, 2026, 10:37 UTC

1 60762U 24140EM  26257.44244056  .00000827  00000-0  19141-3 0  9999
2 60762  89.0252 262.9572 0101540 340.1161  19.6099 14.51087712110573

AllMySatでCZ-6A DEBをリアルタイム追跡

Download on the App Store